Hugo, OK

8:27 PM CDT on March 30, 2017 (GMT -0500)
Stamper Municipal

Weather History for KHHW - May, 2013

Change the Weather History Date:

Sunday, May 12, 2013

  Actual Average Record
Temperature  
Mean Temperature 61 °F -  
Max Temperature 74 °F 82 °F 86 °F (2014)
Min Temperature 48 °F 60 °F 48 °F (2013)
Degree Days  
Heating Degree Days 4    
Growing Degree Days 11 (Base 50)    
Moisture  
Dew Point 40 °F    
Average Humidity 45    
Maximum Humidity 65    
Minimum Humidity 28    
Precipitation  
Precipitation 0.00 in - - ()
Sea Level Pressure  
Sea Level Pressure 30.21 in    
Wind  
Wind Speed 4 mph (East)    
Max Wind Speed 12 mph    
Max Gust Speed 16 mph    
Visibility 10 miles    
Events      
Averages and records for this station are not official NWS values.
T = Trace of Precipitation, MM = Missing Value Source: NWS Daily Summary

Daily Weather History Graph

Daily Weather History Graph

Search for Another Location

Airport or City:

Trip Planner

Search our weather history database for the weather conditions in past years. The results will help you decide how hot, cold, wet, or windy it might be!

Date:

Astronomy

May. 12, 2013 Rise Set
Actual Time 6:22 AM CDT 8:14 PM CDT
Civil Twilight 5:55 AM CDT 8:42 PM CDT
Nautical Twilight 5:22 AM CDT 9:15 PM CDT
Astronomical Twilight 4:46 AM CDT 9:51 PM CDT
Moon 8:20 AM CDT (5/12) 10:41 PM CDT (5/12)
Length of Visible Light 14h 46m
Length of Day
13h 52m
Waxing Crescent, 7% of the Moon is Illuminated
May 12
Waxing Crescent
May 17
First Quarter
May 24
Full
May 31
Last Quarter
Jun 8
New

Hourly Weather History & Observations

Time (CDT) Temp. Dew Point Humidity Pressure Visibility Wind Dir Wind Speed Gust Speed Precip Events Conditions
12:15 AM 60.8 °F 42.3 °F 50% 30.18 in 10.0 mi NNE 5.8 mph - N/A   Clear
12:35 AM 60.1 °F 41.0 °F 49% 30.19 in 10.0 mi NNE 5.8 mph - N/A   Clear
12:55 AM 59.9 °F 40.1 °F 48% 30.19 in 10.0 mi North 5.8 mph - N/A   Clear
1:15 AM 58.5 °F 39.9 °F 50% 30.20 in 10.0 mi North 4.6 mph - N/A   Clear
1:35 AM 57.2 °F 39.7 °F 52% 30.20 in 10.0 mi North 5.8 mph - N/A   Clear
1:55 AM 55.6 °F 39.7 °F 55% 30.20 in 10.0 mi North 3.5 mph - N/A   Clear
2:15 AM 55.4 °F 39.2 °F 54% 30.20 in 10.0 mi North 4.6 mph - N/A   Clear
2:35 AM 55.6 °F 38.7 °F 53% 30.20 in 10.0 mi North 4.6 mph - N/A   Clear
2:55 AM 55.4 °F 38.3 °F 53% 30.20 in 10.0 mi North 3.5 mph - N/A   Clear
3:15 AM 54.0 °F 38.7 °F 56% 30.20 in 10.0 mi North 5.8 mph - N/A   Clear
3:35 AM 53.8 °F 38.3 °F 56% 30.21 in 10.0 mi North 4.6 mph - N/A   Clear
3:55 AM 53.1 °F 37.9 °F 57% 30.20 in 10.0 mi North 5.8 mph - N/A   Clear
4:35 AM 51.8 °F 37.8 °F 59% 30.21 in 10.0 mi Calm Calm - N/A   Clear
4:55 AM 52.0 °F 37.4 °F 58% 30.21 in 10.0 mi NNE 3.5 mph - N/A   Clear
5:15 AM 51.4 °F 37.4 °F 59% 30.21 in 10.0 mi NNE 3.5 mph - N/A   Clear
5:35 AM 49.3 °F 37.9 °F 65% 30.22 in 10.0 mi North 3.5 mph - N/A   Clear
5:55 AM 50.4 °F 37.4 °F 61% 30.22 in 10.0 mi North 4.6 mph - N/A   Clear
6:15 AM 49.5 °F 37.4 °F 63% 30.23 in 10.0 mi North 4.6 mph - N/A   Clear
6:35 AM 48.6 °F 37.2 °F 65% 30.23 in 10.0 mi North 5.8 mph - N/A   Clear
6:55 AM 49.1 °F 37.6 °F 64% 30.24 in 10.0 mi North 4.6 mph - N/A   Clear
7:15 AM 50.2 °F 38.1 °F 63% 30.24 in 10.0 mi NNE 4.6 mph - N/A   Clear
7:35 AM 52.5 °F 39.7 °F 62% 30.25 in 10.0 mi Calm Calm - N/A   Clear
7:55 AM 54.5 °F 39.2 °F 56% 30.26 in 10.0 mi NE 3.5 mph - N/A   Clear
8:15 AM 56.7 °F 39.2 °F 52% 30.26 in 10.0 mi ENE 3.5 mph - N/A   Clear
8:35 AM 58.3 °F 38.5 °F 48% 30.26 in 10.0 mi Calm Calm - N/A   Clear
8:55 AM 60.6 °F 39.2 °F 45% 30.25 in 10.0 mi East 5.8 mph - N/A   Clear
9:15 AM 62.6 °F 40.6 °F 45% 30.25 in 10.0 mi East 6.9 mph - N/A   Clear
9:35 AM 64.0 °F 34.0 °F 33% 30.26 in 10.0 mi East 8.1 mph - N/A   Clear
9:55 AM 64.9 °F 33.8 °F 31% 30.26 in 10.0 mi East 9.2 mph - N/A   Clear
10:15 AM 65.5 °F 34.7 °F 32% 30.26 in 10.0 mi ESE 11.5 mph 16.1 mph N/A   Clear
10:35 AM 66.2 °F 34.7 °F 31% 30.24 in 10.0 mi East 5.8 mph 16.1 mph N/A   Clear
10:55 AM 66.9 °F 36.1 °F 32% 30.24 in 10.0 mi ENE 6.9 mph - N/A   Clear
11:15 AM 66.7 °F 38.5 °F 35% 30.24 in 10.0 mi SE 4.6 mph - N/A   Clear
11:35 AM 67.6 °F 36.9 °F 32% 30.26 in 10.0 mi East 5.8 mph - N/A   Clear
11:55 AM 67.5 °F 36.5 °F 32% 30.26 in 10.0 mi Calm Calm - N/A   Clear
12:15 PM 68.9 °F 38.3 °F 33% 30.26 in 10.0 mi SSE 3.5 mph - N/A   Clear
12:35 PM 69.1 °F 37.2 °F 31% 30.26 in 10.0 mi Calm Calm - N/A   Clear
12:55 PM 69.6 °F 37.9 °F 31% 30.25 in 10.0 mi Calm Calm - N/A   Clear
1:35 PM 70.2 °F 37.4 °F 30% 30.24 in 10.0 mi Calm Calm - N/A   Clear
1:55 PM 71.2 °F 40.1 °F 32% 30.23 in 10.0 mi South 4.6 mph - N/A   Clear
2:15 PM 71.2 °F 37.4 °F 29% 30.23 in 10.0 mi Calm Calm - N/A   Clear
2:35 PM 72.3 °F 39.7 °F 31% 30.22 in 10.0 mi Calm Calm - N/A   Clear
2:55 PM 72.1 °F 40.5 °F 32% 30.21 in 10.0 mi Calm Calm - N/A   Clear
3:15 PM 73.0 °F 41.4 °F 32% 30.21 in 10.0 mi South 5.8 mph - N/A   Clear
3:35 PM 73.8 °F 41.2 °F 31% 30.21 in 10.0 mi South 5.8 mph - N/A   Clear
3:55 PM 73.4 °F 39.7 °F 30% 30.19 in 10.0 mi SSW 3.5 mph - N/A   Clear
4:15 PM 73.0 °F 40.5 °F 31% 30.20 in 10.0 mi Calm Calm - N/A   Clear
4:35 PM 73.4 °F 39.9 °F 30% 30.19 in 10.0 mi SSE 3.5 mph - N/A   Clear
4:55 PM 73.8 °F 39.9 °F 29% 30.19 in 10.0 mi Calm Calm - N/A   Clear
5:15 PM 73.9 °F 39.0 °F 28% 30.18 in 10.0 mi Calm Calm - N/A   Clear
5:35 PM 74.3 °F 39.4 °F 28% 30.18 in 10.0 mi South 3.5 mph - N/A   Clear
5:55 PM 73.4 °F 39.2 °F 29% 30.17 in 10.0 mi South 4.6 mph - N/A   Clear
6:15 PM 73.0 °F 40.8 °F 31% 30.16 in 10.0 mi Calm Calm - N/A   Clear
6:35 PM 72.9 °F 40.1 °F 31% 30.16 in 10.0 mi South 3.5 mph - N/A   Clear
6:55 PM 71.8 °F 42.1 °F 34% 30.15 in 10.0 mi SSW 4.6 mph - N/A   Clear
7:15 PM 70.7 °F 41.7 °F 35% 30.14 in 10.0 mi South 3.5 mph - N/A   Clear
7:35 PM 70.3 °F 43.3 °F 38% 30.15 in 10.0 mi Calm Calm - N/A   Clear
7:55 PM 69.3 °F 43.0 °F 39% 30.15 in 10.0 mi SSW 4.6 mph - N/A   Clear
8:15 PM 67.5 °F 43.9 °F 43% 30.15 in 10.0 mi South 3.5 mph - N/A   Clear
8:35 PM 66.0 °F 44.6 °F 46% 30.15 in 10.0 mi South 3.5 mph - N/A   Clear
8:55 PM 65.3 °F 44.8 °F 47% 30.15 in 10.0 mi Calm Calm - N/A   Clear
9:15 PM 63.9 °F 45.7 °F 52% 30.15 in 10.0 mi South 3.5 mph - N/A   Clear
9:35 PM 63.3 °F 46.0 °F 53% 30.16 in 10.0 mi Calm Calm - N/A   Clear
9:55 PM 61.9 °F 46.8 °F 58% 30.17 in 10.0 mi South 3.5 mph - N/A   Clear
10:15 PM 61.9 °F 45.9 °F 56% 30.17 in 10.0 mi South 3.5 mph - N/A   Clear
10:35 PM 60.1 °F 46.9 °F 62% 30.18 in 10.0 mi South 3.5 mph - N/A   Clear
10:55 PM 61.0 °F 45.1 °F 56% 30.18 in 10.0 mi South 4.6 mph - N/A   Clear
11:15 PM 60.1 °F 44.8 °F 57% 30.18 in 10.0 mi South 3.5 mph - N/A   Clear
11:35 PM 58.6 °F 45.1 °F 61% 30.18 in 10.0 mi South 4.6 mph - N/A   Clear
11:55 PM 58.6 °F 44.6 °F 60% 30.18 in 10.0 mi South 4.6 mph - N/A   Clear